Regional Weather Roundup
Issued by NWS Jackson, KY

Home | Current Version | Previous Version | Text Only | Print | Product List | Glossary On
Versions: 1 2 3 4 5 6 7 8 9 10 11 12 13 14 15 16 17 18 19 20 21 22 23 24 25 26 27 28 29 30 31 32 33 34 35 36 37 38 39 40 41 42 43 44 45 46 47 48 49 50
000
ASUS43 KJKL 231110
RWRJKL

EAST KENTUCKY HOURLY WEATHER ROUNDUP
NATIONAL WEATHER SERVICE JACKSON KY
700 AM EDT TUE MAY 23 2017

NOTE: "FAIR" INDICATES FEW OR NO CLOUDS BELOW 12,000 FEET WITH
NO SIGNIFICANT WEATHER AND/OR OBSTRUCTIONS TO VISIBILITY.

* THESE REPORTS ARE NOT UNDER NWS QUALITY CONTROL AND MAY NOT
  REPORT WEATHER SUCH AS PRECIPITATION AND FOG.

KYZ079-080-083-085-087-088-110-112-115-119-120-231200
...EASTERN KENTUCKY...

CITY           SKY/WX    TMP DP  RH WIND       PRES   REMARKS
JACKSON        CLOUDY    56  50  80 VRB3      29.89R
LONDON         CLOUDY    56  52  86 N3        29.86F
SOMERSET*      PTCLDY    54  52  94 CALM      29.85F
MONTICELLO*    MOCLDY    57  54  89 W6        29.85F
WILLIAMSBURG*  CLOUDY    55  55 100 CALM      29.84F
MIDDLESBORO*   CLOUDY    58  58 100 CALM      29.86F
HARLAN APT*    CLOUDY    55  54  94 CALM      29.87F
PIKE CO APT*     N/A     55  55 100 CALM      29.90R
BIG SANDY APT* CLOUDY    54  54  99 CALM      29.90R
MOREHEAD APT*  CLOUDY    55  48  76 CALM      29.91R
$$

KYZ035-036-041-042-044-050-067-078-099-231200
...CENTRAL KENTUCKY...

CITY           SKY/WX    TMP DP  RH WIND       PRES   REMARKS
MT STERLING*   PTCLDY    54  52  94 SE3       29.91R
FLEMING/MASON* CLOUDY    52  50  92 CALM      29.91R
DANVILLE*      CLOUDY    54  52  94 N5        29.87F
LEXINGTON      PTCLDY    56  50  80 NE3       29.89R
FRANKFORT      MOCLDY    54  50  86 CALM      29.88R
LOUISVILLE     CLOUDY    58  52  80 NE3       29.86F
LEBANON*         N/A     55  54  94 CALM      29.87S
GLASGOW*       CLOUDY    58  53  83 CALM      29.83F
BOWLING GREEN  MOCLDY    61  55  81 NE3       29.83F
$$

KYZ091>093-OHZ055-061-077-WVZ005-015-034-035-042-231200
...SOUTHERN OHIO/WEST VIRGINIA...

CITY           SKY/WX    TMP DP  RH WIND       PRES   REMARKS
COVINGTON      MOCLDY    52  48  86 S5        29.90R
COLUMBUS       CLOUDY    52  48  86 CALM      29.90F
DAYTON         MOCLDY    50  48  93 E3        29.91S
WILMINGTON     CLOUDY    49  47  93 NE3       29.90S
HUNTINGTON     CLOUDY    55  51  86 E3        29.88S
CHARLESTON     CLOUDY    53  51  93 NE5       29.88F FOG
PINEVILLE*     CLOUDY    56  55  97 MISG      29.96R
BECKLEY        CLOUDY    55  50  83 CALM      29.92R
BLUEFIELD      LGT RAIN  55  50  83 SE6       29.95R
LOGAN CO APT*  PTSUNNY   55  54  94 CALM      29.90R
$$

VAZ002-007-008-TNZ017-027-036-066-071-231200
...SOUTHWEST VIRGINIA/EAST TENNESSEE...

CITY           SKY/WX    TMP DP  RH WIND       PRES   REMARKS
WISE*          DRIZZLE   55  55 100 CALM      29.93S
JONESVILLE*      N/A     59  59 100 CALM      29.88F
ABINGDON*      CLOUDY    62  56  81 E3        29.90R
BRISTOL        LGT RAIN  63  59  87 CALM      29.89R
MORRISTOWN*    CLOUDY    63  63 100 S5        29.86S
SEVIERVILLE*   CLOUDY    63  63 100 CALM      29.85F
KNOXVILLE      CLOUDY    63  62  97 E5        29.83F FOG
LAFOLLETTE*    SUNNY     59  57  94 CALM      29.87F
OAK RIDGE      CLOUDY    62  58  86 CALM      29.85F
CROSSVILLE     CLOUDY    59  57  93 CALM      29.86F
NASHVILLE      CLOUDY    63  56  78 N3        29.83F
$$

...KEY TO REMARKS...
VSB - VISIBILITY IN MILES
WCI - WIND CHILL INDEX
HX  - HEAT INDEX

$$



USA.gov is the U.S. government's official web portal to all federal, state and local government web resources and services.